Location: Guadanolo
(41.9167°N, 12.9333°E)
Time: 21:16:08
(UTC+00:00)

COSMOS 2428 - Pass Details

Date: 16 September 2019
Orbit: 845 x 856 km, 70.9° (Epoch: 21 October)

Event Time Altitude Azimuth Distance (km) Brightness Sun altitude
Rises 19:04:35 0° 332° (NNW) 3,414 6.7 -20.3°
Reaches altitude 10° 19:07:03 10° 329° (NNW) 2,475 5.9 -20.7°
Maximum altitude 19:12:38 62° 250° (WSW) 946 3.1 -21.6°
Enters shadow 19:16:11 23° 176° (S) 1,728 4.0 -22.2°
